[[{"header":{"parameterUnit":"m.s-1","parameterCategory":1,"la1":30.2991,"la2":30.254,"lo1":-89.0895,"lo2":-89.0444,"dy":0.0017,"dx":0.0017,"nx":28,"ny":28,"refTime":"2025-08-21T03:00:00:Z","depth":0,"parameterNumber":2,"parameterNumberName":"U-component_of_WINDS"},"data":[0,0,0,0,0,0,0,0,0,0,0,0,0,0,0,0,0,0,0,0,0,0,0,0,0,0,0,0,0,0,0,0,0,0,0,0,0,0,0,0,0,0,0,0,0,0,0,0,0,0,0,0,0,0,0,0,0,0,0.3819,0.3819,0,0.3884,0.3884,0.3885,0.3914,0.3914,0.3914,0.3914,0.3983,0.3984,0.3986,0,0,0,0,0,0,0,0,0,0,0,0,0,0.3723,0.3725,0.3819,0.382,0.382,0.3883,0.3884,0.3885,0.3914,0.3914,0.3914,0.3914,0.3982,0.3984,0.3987,0,0,0,0,0,0,0,0,0,0,0,0,0,0.3774,0.3726,0.3819,0.3842,0.3845,0.3883,0.3884,0.3886,0.3914,0.3914,0.3914,0.3914,0.3981,0.3984,0.3987,0.4007,0,0,0.3996,0.3997,0,0,0,0,0,0,0,0,0.3771,0.3778,0.3838,0.3841,0.3844,0.3891,0.3876,0.3926,0.3914,0.3888,0.3914,0.3914,0.3952,0.3957,0.397,0.401,0.4013,0.3996,0.3997,0.3999,0.4,0,0,0,0,0,0,0,0.3768,0.3775,0.3844,0.3839,0.3843,0.3851,0.3858,0.3886,0.392,0.389,0.3893,0.39,0.3954,0.3967,0.3972,0.4014,0.3996,0.3998,0.4,0.4001,0.4075,0.4076,0,0,0,0,0,0,0.376,0.3772,0.3842,0.3846,0.3807,0.3853,0.3861,0.3876,0.392,0.3926,0.39,0.3901,0.3962,0.3968,0.3974,0.4001,0.3999,0.4001,0.4003,0.4075,0.4075,0.4076,0,0,0,0,0,0,0.3758,0.3766,0.384,0.381,0.382,0.3855,0.3871,0.3877,0.389,0.3927,0.3934,0.3907,0.3963,0.397,0.3999,0.4004,0.4003,0.4005,0.4075,0.4075,0.4076,0.4055,0,0,0,0,0,0,0.3755,0.3765,0.3772,0.381,0.3821,0.3862,0.3872,0.3879,0.3895,0.3897,0.3935,0.3942,0.3963,0.3994,0.4001,0.4008,0.4007,0.4074,0.4075,0.4075,0.4055,0.4055,0.4054,0,0,0,0,0,0.3751,0.3764,0.3772,0.378,0.3831,0.3862,0.3869,0.3893,0.3895,0.3903,0.3927,0.394,0.4002,0.3997,0.4005,0.4013,0.4074,0.4075,0.4075,0.4056,0.4055,0.4054,0,0,0,0,0,0,0.3726,0.3769,0.3779,0.3803,0.3829,0.3867,0.3877,0.3891,0.3916,0.3917,0.3947,0.3955,0.3981,0.4,0.3993,0.4035,0.404,0.4042,0.4022,0.4021,0.4021,0.4015,0.401,0,0,0,0,0,0.3723,0.3744,0.3781,0.3799,0.3811,0.3842,0.3857,0.3873,0.3901,0.3912,0.3938,0.3965,0.3991,0.4007,0.4033,0.4059,0.4068,0.4068,0.4067,0.4067,0.4068,0.4085,0.4085,0.4078,0.4078,0.4078,0,0,0.3717,0.3743,0.3755,0.3795,0.3816,0.3839,0.3851,0.3874,0.3891,0.3916,0.3944,0.3964,0.3997,0.4024,0.4037,0.404,0.4073,0.4067,0.4067,0.4069,0.4085,0.4086,0.4087,0.4078,0.4078,0.4078,0,0,0.3718,0.374,0.3758,0.378,0.3812,0.3833,0.3837,0.3874,0.3888,0.3917,0.3936,0.3958,0.4002,0.4024,0.4041,0.4053,0.4067,0.4061,0.4058,0.4073,0.4074,0.4074,0.4079,0.4081,0.4063,0.4063,0.4063,0,0.3707,0.374,0.3766,0.3788,0.3805,0.3829,0.3848,0.3868,0.3908,0.392,0.3923,0.3979,0.4002,0.4036,0.4039,0.4052,0.4059,0.4056,0.4072,0.4072,0.4074,0.4079,0.408,0.4062,0.4062,0.4062,0.4062,0,0.3726,0.3749,0.376,0.3797,0.3816,0.3837,0.3866,0.3883,0.3898,0.3919,0.3949,0.3978,0.4011,0.402,0.4035,0.4056,0.4058,0.4066,0.4071,0.4073,0.4078,0.408,0.406,0.4061,0.4061,0.4061,0,0,0.3711,0.3763,0.3767,0.3785,0.3823,0.3842,0.3865,0.3896,0.391,0.3937,0.3958,0.3995,0.4003,0.4023,0.4041,0.4055,0.4063,0.4062,0.4063,0.4061,0.409,0.4083,0.4085,0.4073,0.4074,0.4074,0.4087,0,0.3717,0.3758,0.3782,0.3813,0.3835,0.3859,0.3879,0.3905,0.3926,0.3949,0.3972,0.3998,0.4007,0.4019,0.4034,0.4059,0.407,0.4059,0.4093,0.4094,0.4084,0.4088,0.4081,0.4092,0.409,0.409,0.409,0,0.373,0.3756,0.3789,0.3827,0.3837,0.3854,0.3886,0.3907,0.3939,0.3953,0.3976,0.3994,0.4021,0.4024,0.4061,0.4053,0.4069,0.4084,0.4085,0.4089,0.4092,0.4092,0.4096,0.4098,0.4094,0.4093,0.4093,0,0.3716,0.376,0.3786,0.3801,0.3845,0.3857,0.3876,0.3907,0.3925,0.3954,0.3966,0.3997,0.4014,0.4038,0.4066,0.4065,0.4101,0.4106,0.4114,0.4113,0.412,0.4119,0.4126,0.413,0.413,0.413,0.413,0,0.3721,0.374,0.3781,0.3796,0.3819,0.3848,0.387,0.3892,0.392,0.3941,0.3964,0.3984,0.4019,0.4043,0.4065,0.4093,0.4101,0.4114,0.4119,0.4111,0.411,0.4122,0.4122,0.4131,0.413,0.413,0.413,0,0.3709,0.3737,0.3767,0.3806,0.3817,0.3832,0.3867,0.3884,0.3907,0.3934,0.3942,0.3977,0.4007,0.4037,0.4078,0.4093,0.4121,0.4128,0.411,0.4113,0.4119,0.4118,0.4135,0.4139,0.4139,0.4139,0.4139,0,0.371,0.3725,0.3767,0.3783,0.3802,0.3826,0.3845,0.3875,0.3893,0.3931,0.3944,0.3976,0.4003,0.4051,0.4081,0.4113,0.4121,0.4125,0.4126,0.4118,0.4122,0.412,0.4122,0.4124,0.4123,0.4123,0.4123,0,0.3709,0.3722,0.3748,0.3779,0.38,0.3826,0.3853,0.3865,0.39,0.392,0.3951,0.3972,0.4014,0.4046,0.4081,0.4102,0.4119,0.4123,0.4126,0.4119,0.4107,0.4114,0.4108,0.4122,0.4122,0.4122,0.4122,0.4122,0.3704,0.3719,0.3751,0.3779,0.3803,0.3828,0.3846,0.3871,0.3897,0.3933,0.3949,0.3981,0.4014,0.4063,0.4085,0.4111,0.4115,0.412,0.4121,0.4122,0.412,0.4103,0.4117,0.4117,0.4117,0.4118,0.4118,0,0.3704,0.3726,0.3752,0.3789,0.3811,0.3825,0.3856,0.3874,0.3901,0.393,0.3957,0.3993,0.4025,0.4058,0.4092,0.4106,0.4115,0.4114,0.4113,0.4118,0.4115,0.4108,0.4107,0.4107,0.4107,0.4107,0.4107,0.4107,0.3707,0.3734,0.3751,0.3791,0.3813,0.3844,0.386,0.3884,0.3908,0.3947,0.3973,0.3995,0.4026,0.4062,0.4093,0.4102,0.4113,0.411,0.4122,0.4118,0.4118,0.4119,0.4113,0.4113,0.4113,0.4123,0.4123,0.4123]},{"header":{"parameterUnit":"m.s-1","parameterCategory":1,"la1":30.2991,"la2":30.254,"lo1":-89.0895,"lo2":-89.0444,"dy":0.0017,"dx":0.0017,"nx":28,"ny":28,"refTime":"2025-08-21T03:00:00:Z","depth":0,"parameterNumber":3,"parameterNumberName":"V-component_of_WINDS"},"data":[0,0,0,0,0,0,0,0,0,0,0,0,0,0,0,0,0,0,0,0,0,0,0,0,0,0,0,0,0,0,0,0,0,0,0,0,0,0,0,0,0,0,0,0,0,0,0,0,0,0,0,0,0,0,0,0,0,0,-0.9764,-0.9764,0,-0.9774,-0.9775,-0.9775,-0.9772,-0.9772,-0.9771,-0.9771,-0.9781,-0.9781,-0.9782,0,0,0,0,0,0,0,0,0,0,0,0,0,-0.9741,-0.9742,-0.9764,-0.9764,-0.9764,-0.9774,-0.9775,-0.9775,-0.9772,-0.9772,-0.9771,-0.9771,-0.978,-0.9781,-0.9782,0,0,0,0,0,0,0,0,0,0,0,0,0,-0.9751,-0.9742,-0.9764,-0.9764,-0.9764,-0.9774,-0.9775,-0.9775,-0.9772,-0.9772,-0.9771,-0.9771,-0.978,-0.9781,-0.9782,-0.9792,0,0,-0.9784,-0.9784,0,0,0,0,0,0,0,0,-0.9751,-0.9752,-0.9764,-0.9764,-0.9764,-0.9772,-0.977,-0.978,-0.9772,-0.9769,-0.9771,-0.9771,-0.9778,-0.9779,-0.9781,-0.9792,-0.9793,-0.9784,-0.9784,-0.9784,-0.9785,0,0,0,0,0,0,0,-0.975,-0.9752,-0.9768,-0.9764,-0.9764,-0.9764,-0.9765,-0.9772,-0.9775,-0.9769,-0.9769,-0.977,-0.9778,-0.9781,-0.9781,-0.9793,-0.9784,-0.9784,-0.9785,-0.9785,-0.9814,-0.9814,0,0,0,0,0,0,-0.975,-0.9751,-0.9768,-0.9768,-0.9757,-0.9764,-0.9765,-0.977,-0.9775,-0.9775,-0.9771,-0.977,-0.978,-0.9781,-0.9782,-0.9795,-0.9784,-0.9785,-0.9785,-0.9814,-0.9814,-0.9814,0,0,0,0,0,0,-0.9749,-0.9751,-0.9767,-0.976,-0.9762,-0.9765,-0.977,-0.977,-0.9773,-0.9776,-0.9776,-0.9773,-0.9779,-0.9781,-0.979,-0.9795,-0.9785,-0.9786,-0.9813,-0.9814,-0.9814,-0.9821,0,0,0,0,0,0,-0.9748,-0.9751,-0.9755,-0.976,-0.9762,-0.9775,-0.977,-0.977,-0.9774,-0.9774,-0.9778,-0.9779,-0.9779,-0.9789,-0.979,-0.9796,-0.9786,-0.9813,-0.9813,-0.9814,-0.982,-0.9821,-0.9823,0,0,0,0,0,-0.9748,-0.9756,-0.9755,-0.9757,-0.9767,-0.9776,-0.9777,-0.9778,-0.9774,-0.9779,-0.9781,-0.9779,-0.9794,-0.979,-0.9791,-0.9797,-0.9812,-0.9813,-0.9814,-0.9819,-0.9821,-0.9823,0,0,0,0,0,0,-0.975,-0.9756,-0.9756,-0.9766,-0.977,-0.9775,-0.978,-0.9779,-0.9785,-0.9784,-0.9784,-0.9785,-0.9795,-0.9797,-0.9792,-0.9808,-0.9803,-0.9804,-0.9806,-0.9808,-0.9809,-0.9809,-0.9787,0,0,0,0,0,-0.9752,-0.9759,-0.9764,-0.9772,-0.9775,-0.9777,-0.9781,-0.9781,-0.9786,-0.9787,-0.979,-0.9794,-0.98,-0.9804,-0.981,-0.982,-0.9822,-0.9825,-0.9826,-0.9827,-0.9829,-0.9835,-0.9837,-0.9817,-0.9817,-0.9817,0,0,-0.9756,-0.976,-0.9764,-0.9773,-0.9776,-0.9783,-0.9779,-0.9786,-0.9791,-0.9788,-0.9797,-0.9799,-0.9804,-0.9814,-0.9819,-0.9816,-0.9834,-0.9829,-0.9829,-0.983,-0.9836,-0.9838,-0.984,-0.9818,-0.9818,-0.9818,0,0,-0.9767,-0.977,-0.9778,-0.9782,-0.9788,-0.979,-0.9792,-0.9797,-0.9799,-0.9808,-0.9806,-0.9812,-0.9822,-0.9826,-0.9829,-0.9842,-0.9841,-0.9844,-0.9851,-0.9857,-0.9858,-0.986,-0.9865,-0.9867,-0.9845,-0.9845,-0.9845,0,-0.9771,-0.9781,-0.9782,-0.979,-0.9794,-0.9793,-0.9801,-0.9804,-0.9811,-0.9814,-0.9811,-0.9825,-0.9828,-0.9839,-0.9842,-0.9845,-0.9847,-0.9843,-0.9858,-0.986,-0.9861,-0.9866,-0.9868,-0.9845,-0.9845,-0.9845,-0.9845,0,-0.9786,-0.9793,-0.9799,-0.9807,-0.9811,-0.9819,-0.9821,-0.9826,-0.9826,-0.9828,-0.9838,-0.9842,-0.9848,-0.9851,-0.9851,-0.9862,-0.9861,-0.9858,-0.9853,-0.9863,-0.9868,-0.987,-0.9846,-0.9846,-0.9846,-0.9846,0,0,-0.9798,-0.9807,-0.9809,-0.9813,-0.982,-0.9825,-0.9833,-0.9841,-0.9845,-0.985,-0.9857,-0.9866,-0.9863,-0.9867,-0.9867,-0.9873,-0.9884,-0.987,-0.987,-0.9873,-0.9898,-0.99,-0.9902,-0.9883,-0.9883,-0.9883,-0.9897,0,-0.9809,-0.9824,-0.9826,-0.9839,-0.9846,-0.9845,-0.9852,-0.9857,-0.9859,-0.9865,-0.9868,-0.9875,-0.9871,-0.9873,-0.9879,-0.9881,-0.9889,-0.988,-0.9889,-0.989,-0.9888,-0.9904,-0.9907,-0.9919,-0.9899,-0.9899,-0.99,0,-0.9825,-0.9831,-0.9845,-0.9852,-0.9855,-0.9861,-0.9868,-0.9874,-0.988,-0.9881,-0.9886,-0.9886,-0.9894,-0.9889,-0.99,-0.9894,-0.9898,-0.99,-0.99,-0.9901,-0.9895,-0.9906,-0.9923,-0.9926,-0.9902,-0.9902,-0.9902,0,-0.9833,-0.9845,-0.9855,-0.9858,-0.9866,-0.9871,-0.9874,-0.988,-0.9884,-0.989,-0.9893,-0.99,-0.9904,-0.9909,-0.9911,-0.9907,-0.9923,-0.9917,-0.9924,-0.9924,-0.9927,-0.9927,-0.9946,-0.9929,-0.9929,-0.9929,-0.9929,0,-0.9846,-0.9854,-0.9859,-0.9865,-0.9875,-0.9877,-0.9886,-0.989,-0.9895,-0.9901,-0.9901,-0.9907,-0.9909,-0.9916,-0.9917,-0.9927,-0.9928,-0.993,-0.993,-0.993,-0.993,-0.9933,-0.9932,-0.993,-0.993,-0.993,-0.993,0,-0.9856,-0.986,-0.9871,-0.9878,-0.988,-0.9887,-0.9893,-0.9899,-0.9901,-0.991,-0.9912,-0.9916,-0.9924,-0.9926,-0.9935,-0.9936,-0.9948,-0.9947,-0.9946,-0.9946,-0.9953,-0.9953,-0.9975,-0.9978,-0.9959,-0.9959,-0.9959,0,-0.9864,-0.9871,-0.9879,-0.9884,-0.9888,-0.9896,-0.9901,-0.9903,-0.9908,-0.9916,-0.9921,-0.9929,-0.9935,-0.9948,-0.9952,-0.9959,-0.9959,-0.9966,-0.996,-0.996,-0.9959,-0.9959,-0.996,-0.9967,-0.9967,-0.9967,-0.9967,0,-0.9878,-0.988,-0.9888,-0.9896,-0.9902,-0.9909,-0.9915,-0.9919,-0.9922,-0.9928,-0.9936,-0.9941,-0.9952,-0.996,-0.9967,-0.997,-0.997,-0.997,-0.9972,-0.9972,-0.9971,-0.9972,-0.995,-0.9969,-0.9969,-0.9969,-0.9969,-0.9969,-0.9888,-0.9895,-0.9902,-0.991,-0.9915,-0.9922,-0.9928,-0.9932,-0.9939,-0.9948,-0.9949,-0.9958,-0.9964,-0.9974,-0.9978,-0.9985,-0.9983,-0.9986,-0.9987,-0.9988,-0.9989,-0.997,-0.9987,-0.9987,-0.9987,-0.9987,-0.9987,0,-0.9903,-0.9908,-0.9916,-0.9925,-0.9932,-0.9931,-0.9938,-0.9944,-0.9952,-0.9958,-0.9965,-0.9975,-0.9983,-0.9988,-0.9996,-1.0001,-1.0001,-1.0003,-1.0003,-1.0003,-0.999,-0.9987,-1.0003,-1.0003,-1.0003,-1.0003,-1.0003,-1.0003,-0.9911,-0.9922,-0.9925,-0.9939,-0.9943,-0.9953,-0.9957,-0.9963,-0.9968,-0.9979,-0.9986,-0.999,-0.9995,-1.0004,-1.0011,-1.0012,-1.0015,-1.0018,-1.0019,-1.0006,-1.0004,-1.0003,-1.0001,-1.0018,-1.0019,-1.0032,-1.0032,-1.0032]}]]